Voltar ao catálogo

SAUDICOMSAT 3

AtivoComunicaçõesSSO
NORAD 31125·PAYLOAD·🇸🇦 Saudi Arabia

Lançado Apr 17, 2007 de Baikonur Cosmodrome

Loading…

Próximas Passagens (próximas 24 horas)

TLE

AtualizadoSource: Space-Track

Época: Sep 14, 2026, 04:04 UTC

1 31125U 07012J   26257.16946199  .00000501  00000-0  89771-4 0  9991
2 31125  98.3256 234.4471 0040015 129.3437 231.1326 14.70815891 37902

Acompanhe SAUDICOMSAT 3 em tempo real com AllMySat

Download on the App Store